Coober Pedy Airport, Australia

3:24 PM ACDT on March 25, 2017 (GMT +1030)
Coober Pedy

Weather History for YCBP - April, 2014

Change the Weather History Date:

Monday, April 28, 2014

  Actual Average Record
Temperature  
Mean Temperature 80 °F -  
Max Temperature 93 °F - - ()
Min Temperature 66 °F - - ()
Cooling Degree Days 14    
Growing Degree Days 30 (Base 50)    
Moisture  
Dew Point 52 °F    
Average Humidity 45    
Maximum Humidity 68    
Minimum Humidity 20    
Precipitation  
Precipitation 0.00 in - - ()
Sea Level Pressure  
Sea Level Pressure 29.93 in    
Wind  
Wind Speed 16 mph ()    
Max Wind Speed 28 mph    
Max Gust Speed 34 mph    
T = Trace of Precipitation, MM = Missing Value Source: Averaged Metar Reports

Daily Weather History Graph

Daily Weather History Graph

Search for Another Location

Airport or City:

Trip Planner

Search our weather history database for the weather conditions in past years. The results will help you decide how hot, cold, wet, or windy it might be!

Date:

Astronomy

Apr. 28, 2014 Rise Set
Actual Time 6:56 AM ACST 6:00 PM ACST
Civil Twilight 6:32 AM ACST 6:24 PM ACST
Nautical Twilight 6:04 AM ACST 6:52 PM ACST
Astronomical Twilight 5:36 AM ACST 7:20 PM ACST
Moon 5:38 AM ACST (4/28) 5:19 PM ACST (4/28)
Length of Visible Light 11h 52m
Length of Day
11h 03m
Waning Crescent, 2% of the Moon is Illuminated
Apr 28
Waning Crescent
Apr 29
New
May 7
First Quarter
May 15
Full
May 21
Last Quarter

Hourly Weather History & Observations

Time (ACST) Temp. Dew Point Humidity Pressure Visibility Wind Dir Wind Speed Gust Speed Precip Events Conditions
12:30 AM 71.6 °F 53.6 °F 53% 30.01 in - NE 18.4 mph - N/A   Unknown
1:30 AM 69.8 °F 53.6 °F 56% 30.01 in - NE 15.0 mph - N/A   Unknown
2:30 AM 69.8 °F 53.6 °F 56% 29.98 in - NE 17.3 mph - N/A   Unknown
3:30 AM 68.0 °F 55.4 °F 64% 29.98 in - NE 17.3 mph - N/A   Unknown
4:30 AM 66.2 °F 55.4 °F 68% 29.98 in - NE 16.1 mph - N/A   Unknown
5:30 AM 66.2 °F 53.6 °F 64% 29.98 in - NE 18.4 mph - N/A   Unknown
6:30 AM 66.2 °F 53.6 °F 64% 29.98 in - NE 18.4 mph - N/A   Unknown
7:30 AM 66.2 °F 53.6 °F 64% 29.98 in - NNE 19.6 mph - N/A   Unknown
8:30 AM 68.0 °F 53.6 °F 60% 30.01 in - NNE 23.0 mph - N/A   Unknown
9:30 AM 73.4 °F 53.6 °F 50% 30.01 in - NNE 25.3 mph - N/A   Unknown
10:30 AM 78.8 °F 53.6 °F 42% 29.98 in - NNE 25.3 mph - N/A   Unknown
11:30 AM 82.4 °F 51.8 °F 35% 29.98 in - North 27.6 mph - N/A   Unknown
12:30 PM 86.0 °F 51.8 °F 31% 29.95 in - North 27.6 mph - N/A   Unknown
3:30 PM 93.2 °F 48.2 °F 21% 29.86 in - North 19.6 mph - N/A   Unknown
4:30 PM 93.2 °F 46.4 °F 20% 29.86 in - North 20.7 mph - N/A   Unknown
5:30 PM 89.6 °F 48.2 °F 24% 29.86 in - North 12.7 mph - N/A   Unknown
6:30 PM 84.2 °F 50.0 °F 30% 29.86 in - NNE 11.5 mph - N/A   Unknown
7:30 PM 82.4 °F 50.0 °F 32% 29.86 in - NNE 10.4 mph - N/A   Unknown
8:30 PM 80.6 °F 48.2 °F 32% 29.86 in - NNE 12.7 mph - N/A   Unknown
9:30 PM 78.8 °F 48.2 °F 34% 29.83 in - NNE 12.7 mph - N/A   Unknown
10:30 PM 78.8 °F 48.2 °F 34% 29.86 in - NNE 13.8 mph - N/A   Unknown
10:58 PM 78.8 °F 57.2 °F 47% 29.89 in - WSW 17.3 mph 34.5 mph N/A   Overcast
11:00 PM 78.8 °F 57.2 °F 47% 29.89 in - WSW 18.4 mph 34.5 mph N/A   Mostly Cloudy
11:30 PM 75.2 °F 60.8 °F 61% 29.89 in - SSW 20.7 mph - N/A   Mostly Cloudy